Regional Weather Roundup
Issued by NWS Kansas City/Pleasant Hill, MO

Home | Current Version | Previous Version | Graphics & Text | Print | Product List | Glossary Off
Versions: 1 2 3 4 5 6 7 8 9 10 11 12 13 14 15 16 17 18 19 20 21 22 23 24 25 26 27 28 29 30 31 32 33 34 35 36 37 38 39 40 41 42 43 44 45 46 47 48 49 50

000
ASUS43 KEAX 160910
RWREAX

WEATHER ROUNDUP FOR EASTERN KANSAS AND NORTHWEST MISSOURI
NATIONAL WEATHER SERVICE KANSAS CITY/PLEASANT HILL MO
300 AM CST MON JAN 16 2017

KSZ040-057-103>105-MOZ028-029-037-043-161000-
...KANSAS CITY METROPOLITAN AREA...

CITY           SKY/WX    TMP DP  RH WIND       PRES   REMARKS
K.C. INTL      DRZL/FOG  33  31  92 E12       30.02F VSB 1/2 WCI  24
K.C. DOWNTOWN  CLOUDY    33  33 100 E9        30.03F FOG     WCI  25
LEES SUMMIT    LGT RAIN  34 N/A N/A E9        30.03F WCI  27
OLATHE - IXD   RAIN      35  34  96 E10       30.00F FOG     WCI  27
OLATHE - OJC   LGT RAIN  33  33 100 E12       30.00F WCI  24
LAWRENCE       CLOUDY    33  33 100 E7        30.01F FOG     WCI  27

$$

MOZ001>008-011>017-020>025-030>033-038>040-044>046-053-054-161000-
...NORTHERN AND CENTRAL MISSOURI...

CITY           SKY/WX    TMP DP  RH WIND       PRES   REMARKS
ST. JOSEPH     CLOUDY    33  33 100 E7        30.07S FOG     WCI  27
WARRENSBURG    MIX PCPN  34  34 100 NE9       30.04F WCI  26
WHITEMAN AFB   RAIN      36  36 100 E6        30.04F FOG     WCI  31
CLINTON        LGT RAIN  39  39 100 E8        30.04F WCI  34
SEDALIA        LGT RAIN  37  37 100 E7        30.07F FOG     WCI  32
WARSAW         NOT AVBL
CHILLICOTHE      N/A     33  32  96 E5        30.12F WCI  29
KIRKSVILLE     FOG       32  31  96 E8        30.14F VSB 1/4 WCI  25

$$

MOZ041-047>049-056>058-063>065-088>090-097-161000-
...EASTERN AND SOUTHERN MISSOURI...

CITY           SKY/WX    TMP DP  RH WIND       PRES   REMARKS
ST. LOUIS INTL FOG       39  37  92 E7        30.17F VSB 1/4 WCI  34
SPIRIT OF STL  FOG       38  38 100 E5        30.17F VSB 3/4 WCI  34
COLUMBIA       CLOUDY    36  36 100 E10       30.11S FOG     WCI  28
JEFFERSON CITY CLOUDY    37  36  96 E8        30.12F WCI  31
ROLLA          CLOUDY    36  36 100 SE13      30.09F FOG     WCI  27
OSAGE BEACH    CLOUDY    39  39 100 E7        30.09F WCI  34
SPRINGFIELD    CLOUDY    46  45  96 SE21      30.01F
BRANSON        FOG       41  41 100 SE14      30.06F VSB<1/4 WCI  33
JOPLIN         LGT RAIN  49  48  97 MISG      29.95F
WEST PLAINS    FOG       42  42 100 E9        30.12F VSB 1/4

$$

IAZ060-094-KSZ022-034>040-054-083-096-NEZ052-066-093-161000-
...KANSAS...SOUTHEAST NEBRASKA AND IOWA...

CITY           SKY/WX    TMP DP  RH WIND       PRES   REMARKS
TOPEKA         CLOUDY    34  31  88 NE8       30.00F FOG     WCI  27
MANHATTAN      LGT RAIN  33  32  96 NE12      29.97F FOG     WCI  24
EMPORIA        RAIN      35  35 100 E9        29.94F FOG     WCI  28
CHANUTE        RAIN      43  42  97 NE7       29.93F FOG
WICHITA        RAIN      39  39 100 NE16      29.83F FOG     WCI  30
OMAHA          CLOUDY    33  29  85 NE5       30.10F FOG     WCI  29
LINCOLN        FRZ RAIN  32  31  96 NE8       30.08F FOG     WCI  25
FALLS CITY     CLOUDY    32  31  96 NE10      30.06S FOG     WCI  24
LAMONI         FOG       31  30  96 E10       30.10F VSB 1   WCI  22
DES MOINES     FRZ RAIN  31  29  92 E8        30.16F FOG     WCI  23

$$




USA.gov is the U.S. government's official web portal to all federal, state and local government web resources and services.